SL-8 DEB, 21211

Orbit data source: Space-Track

SL-8 DEB, 21211 is space debris in LEO originally from a launch on Tue, 12 Feb 1991 UTC launched from the Plesetsk Missile And Space Complex (PKMTR). Debris objects in space refer to the collection of defunct objects orbiting the Earth. Examples of debris include non-operational satellites, rocket bodies, and fragments generated from explosions, collisions, or faulty payload assembly.

Loading next visibility...
Identifier
21211, 1991-009BE
Orbit
LEO
Country
Flag of CISCIS
Related business
Manufacturer
Unknown
Mission
Spacecraft
Bus & Motor
Unknown
Mass
Unknown
Launch date (UTC)
1991-02-12 (35 years ago)
Launch vehicle
Unknown
Launch site
Plesetsk Missile And Space Complex (PKMTR)
Object type
Payload
Rocket body
Debris
Shape & HBR
Unknown shape, 0.1 m
Radar Cross Section
Medium (>0.1 m² and <1 m²)

Expand to show TLE details & history
Last TLE update: 3 days ago

TLE from 3 days ago
0 SL-8 DEB
1 21211U 91009BE  26170.69375682  .00000127  00000-0  12923-2 0  9997
2 21211  74.0977 264.8305 0199026 227.3423 286.8398 12.19834736567535
Epoch: 2026-06-19T16:39Z
TLE epoch observation values (Epoch: 2026-06-19T16:39:00.589Z)
Latitude
26.89561°
Longitude
-81.10926°
Altitude
1,552.981 km
Speed
7.112 km/s
True Right ascension
05h 06m 14s
True Declination
26° 46' 16"
Sunlit
Object was in daylight at epoch
Visualization orbit readout
Latitude
Unknown
Longitude
Unknown
Altitude
Unknown
Speed
Unknown
Apparent Right ascension
Unknown
Apparent Declination
Unknown
Sunlit
N/A
Visualization observer readout
Local Sidereal Time
23:21:46
Azimuth
Unknown
Elevation
Unknown
Doppler factor
Unknown
Orbital elements
Apogee altitude
1,749.734 km
Perigee altitude
1,432.516 km
Semi-major axis
7,969.262 km
Eccentricity
0.0199
Inclination
74.0977°
RAAN
264.8305°
Arg. of periapsis
227.3423°
True anomaly
284.64163°
Mean anomaly
286.8398°
Eccentric anomaly
285.74224°
Mean motion
3.05082 °/min
Orbital period
118 mins
BSTAR
0.0012923
Loading maneuver chart data...
Computing Atmospheric mass density...
Loading historical data...
Loading historical data...
Loading historical data...
Loading historical data...
Loading historical data...
Loading historical data...
Loading historical data...

Documentation

Showing up to 5 results
|